www.pogodaiklimat.ru

Погода и климат >> Архив погоды >> Пакистан >> Nawabshah


ПОГОДА в Nawabshah

  • Прогноз погоды в Nawabshah
  • Монитор погоды в Nawabshah
  • Климат города

АРХИВ ПОГОДЫ в Nawabshah

Время (UTC), дата Ветер
(напр.,м/с)
 
Видим.   Явления Облачность Т
(С)
Тd
(С)
f
(%)
Тe
(С)
Тes
(С)
Комфортность P
(гПа)
Po
(гПа)
Тmin
(С)
Tmax
(С)
R
(мм)
R24
(мм)
S
(см)
15 11.09 Ю 3 4000 м мгла ясно +32.0 +22.6 58 +42 +42 опасность
перегрева
1004.4 1000.0
18 11.09 Ю 3 4000 м мгла ясно +29.0 +21.6 64 +37 +37 очень
душно
1005.7 1002.4
21 11.09 ЮВ 3 4000 м мгла ясно +28.0 +22.1 70 +36 +36 очень
душно
1005.0 1000.0
00 12.09 ЮВ 2 4000 м мгла ясно +26.0 +21.5 76 +33 +33 очень
душно
1004.0 1000.7
03 12.09 Ю 3 4000 м мгла ясно +27.5 +21.6 70 +35 +38 очень
душно
1004.6 1001.3 +25.1
06 12.09 Ю 5 4000 м ясно +34.0 +22.5 51 +43 +51 опасность
перегрева
1005.8 1002.5
09 12.09 ЮВ 5 4000 м мгла ясно +39.0 +21.8 37 +46 +54 опасность
перегрева
1003.0 1003.0
12 12.09 ЮВ 3 4000 м мгла ясно +39.0 +21.8 37 +46 +49 опасность
перегрева
1000.6 997.3 +40.5
15 12.09 Ю 3 4000 м мгла ясно +31.0 +21.4 57 +39 +39 очень
душно
1001.9 1000.0
18 12.09 ЮВ 2 4000 м мгла ясно +28.0 +21.3 67 +35 +35 очень
душно
1003.6 1000.4
00 13.09 Ю 4 4000 м мгла ясно +25.0 +20.5 76 +31 +31 очень
душно
1001.8 998.6
03 13.09 Ю 4 4000 м ясно +27.5 +21.0 68 +35 +37 очень
душно
1002.5 999.3 +24.5
06 13.09 ЮЗ 3 4000 м ясно +35.0 +22.0 47 +44 +58 опасность
перегрева
1002.7 999.5
09 13.09 ЮВ 2 4000 м ясно +39.5 +21.5 36 +47 +62 опасность
перегрева
1000.6 1000.0
12 13.09 Ю 3 4000 м мгла ясно +38.5 +22.0 39 +47 +49 опасность
перегрева
999.3 996.2 +40.5
15 13.09 Ю 3 4000 м мгла ясно +31.0 +22.3 60 +40 +40 очень
душно
1000.5 1000.0
18 13.09 Ю 3 4000 м мгла ясно +28.5 +21.9 67 +37 +37 очень
душно
1001.3 998.1
21 13.09 Ю 3 4000 м мгла ясно +27.0 +21.8 73 +35 +35 очень
душно
1000.4 1000.0
00 14.09 ЮВ 2 4000 м мгла ясно +25.5 +21.8 80 +33 +33 очень
душно
999.6 996.4
03 14.09 Ю 3 4000 м ясно +27.5 +22.4 74 +36 +39 очень
душно
1001.1 997.9 +24.5
06 14.09 Ю 3 4000 м ясно +34.0 +22.5 51 +43 +58 опасность
перегрева
1004.8 1001.5
09 14.09 Ю 3 4000 м ясно +38.5 +22.0 39 +47 +61 опасность
перегрева
1002.3 1000.0
12 14.09 ЮВ 3 4000 м мгла ясно +37.0 +21.9 42 +45 +47 опасность
перегрева
1001.5 998.4 +39.5
15 14.09 Ю 3 4000 м мгла ясно +32.0 +21.8 55 +41 +41 опасность
перегрева
1003.7 1000.0
18 14.09 Ю 3 4000 м мгла ясно +29.0 +21.6 64 +37 +37 очень
душно
1006.1 1002.8
21 14.09 Ю 3 4000 м мгла ясно +27.0 +21.0 70 +34 +34 очень
душно
1005.1 1000.0
00 15.09 ЮВ 2 4000 м мгла ясно +26.0 +21.5 76 +33 +33 очень
душно
1004.2 1000.9
03 15.09 ЮВ 2 4000 м мгла ясно +27.0 +21.8 73 +35 +38 очень
душно
1005.7 1002.4 +24.1
06 15.09 Ю 3 4000 м ясно +33.5 +22.7 53 +43 +57 опасность
перегрева
1008.1 1004.8
09 15.09 ЮВ 3 4000 м мгла ясно +38.0 +21.4 38 +45 +58 опасность
перегрева
1005.0 1000.0
12 15.09 ЮВ 3 4000 м мгла 4/0
[Ac trans]
+37.0 +21.9 42 +45 +47 опасность
перегрева
1004.0 1000.8 +39.5
15 15.09 ЮВ 3 4000 м мгла ясно +32.0 +21.8 55 +41 +41 опасность
перегрева
1004.9 1000.0
18 15.09 ЮВ 3 4000 м мгла ясно +30.0 +22.0 62 +39 +39 очень
душно
1006.4 1003.2
21 15.09 ЮВ 2 4000 м мгла ясно +28.0 +21.3 67 +35 +35 очень
душно
1005.7 1000.0
00 16.09 ЮВ 3 4000 м мгла ясно +25.5 +21.0 76 +32 +32 очень
душно
1005.2 1002.0
03 16.09 ЮВ 1 4000 м мгла ясно +27.0 +21.0 70 +34 +37 очень
душно
1006.8 1003.6 +24.5
06 16.09 ЮВ 2 4000 м ясно +32.0 +22.6 58 +42 +57 опасность
перегрева
1008.9 1005.7
09 16.09 ЮВ 2 4000 м мгла 6/3 300 м
[Sc Ac trans]
+35.0 +22.0 47 +44 +52 опасность
перегрева
1006.9 1000.0
12 16.09 ЮВ 2 4000 м мгла 6/3 300 м
[Sc Ac trans]
+34.5 +21.4 47 +42 +44 опасность
перегрева
1005.9 1002.7 +36.1
15 16.09 ЮВ 3 4000 м мгла 3/3 300 м
[Sc]
+30.0 +21.4 60 +38 +38 очень
душно
1006.8 1000.0
18 16.09 ЮВ 3 4000 м мгла ясно +28.5 +20.2 61 +35 +35 очень
душно
1007.6 1004.4
21 16.09 ЮВ 2 4000 м мгла ясно +27.0 +21.0 70 +34 +34 очень
душно
1006.2 1000.0
00 17.09 ЮВ 1 4000 м мгла ясно +25.0 +20.5 76 +31 +31 очень
душно
1005.2 1002.0
03 17.09 ЮВ 3 4000 м мгла ясно +28.0 +22.1 70 +36 +39 очень
душно
1005.6 1002.4 +24.0
06 17.09 ЮВ 3 4000 м ясно +33.0 +22.1 53 +42 +56 опасность
перегрева
1008.1 1004.8
09 17.09 штиль 0 4000 м ясно +37.0 +21.0 40 +44 +65 опасность
перегрева
1005.5 1000.0
12 17.09 ЮВ 4 4000 м мгла ясно +37.0 +20.6 39 +44 +45 опасность
перегрева
1003.6 1000.4
15 17.09 ЮВ 3 4000 м мгла ясно +33.0 +20.4 48 +40 +40 очень
душно
1005.0 1000.0
18 17.09 Ю 2 20 км мгла ясно +30.0 +21.1 59 +38 +38 очень
душно
1006.6 1003.4
21 17.09 Ю 2 4000 м мгла ясно +28.0 +21.3 67 +35 +35 очень
душно
1005.5 1000.0
00 18.09 ЮВ 2 4000 м мгла ясно +25.0 +20.5 76 +31 +31 очень
душно
1004.9 1001.7
03 18.09 ЮВ 2 4000 м ясно +27.0 +21.0 70 +34 +37 очень
душно
1006.2 1003.0 +24.1
06 18.09 Ю 3 4000 м ясно +34.0 +21.6 48 +42 +56 опасность
перегрева
1007.9 1004.6
09 18.09 Ю 2 4000 м ясно +38.0 +21.4 38 +45 +61 опасность
перегрева
1005.4 1000.0
12 18.09 Ю 6 4000 м мгла ясно +38.0 +21.4 38 +45 +46 опасность
перегрева
1003.8 1000.6 +39.5

 

Местоположение метеостанции Nawabshah (Пакистан): широта 26.25 долгота 68.37 высота над уровнем моря 38 м.

В архиве по умолчанию представлена погода в Nawabshah за последнюю неделю. Архивные данные за месяц целиком и за предыдущие месяцы, начиная с января 2011 года, Вы можете получить, выбрав интересующий диапазон дат из раскрывающегося списка и нажав кнопку "Ввод!".


*Определитесь, кто Вы:
робот инопланетянин человек

Внимание! Время в таблицах - всемирное. Для получения местного времени необходимо прибавить поправку, которая в Nawabshah равна 5 ч.

Смотрите также архив погоды в соседних городах и на ближайших метеорологических станциях:

Погода в Pad Idan (Пакистан) (71 км)
Погода в Hyderabad (Пакистан) (97 км)
Погода в Sakrand (Пакистан) (125 км)
Погода в Chhor (Пакистан) (163 км)
Погода в Rohri (Пакистан) (166 км)
Погода в Badin (Пакистан) (188 км)
Погода в Karachi (Пакистан) (195 км)
Погода в Jacobabad (Пакистан) (228 км)
Погода в Khuzdar (Пакистан) (246 км)
Погода в Jaisalmer (Rajasthan, Индия) (264 км)

Пояснения к столбцам:

Ветер - указаны скорость ветра в м/с - средняя за 10 мин, порывы в срок и между сроками (в фигурных скобках) и направление, откуда дует ветер: С - северный, СВ - северо-восточный, В - восточный, ЮВ - юго-восточный, Ю - южный, ЮЗ - юго-западный, З - западный, СЗ - северо-западный.
Видимость - горизонтальная дальность видимости в метрах или километрах. При видимости от 1 до 10 км при отсутствии осадков обычно наблюдается дымка, при ухудшении видимости до 1 км и менее - туман. В сухую погоду видимость может ухудшаться дымом, пылью или мглою.
Явления - указаны атмосферные явления, наблюдавшиеся в срок или в последний час перед сроком; фигурными скобками обозначены явления, наблюдавшиеся между сроками (за 1-3 часа до срока); квадратными скобками обозначены град или гололедные отложения с указанием их диаметра в мм.
Облачность - указаны через наклонную черту общая и нижняя облачность в баллах и высота нижней границы облаков в метрах; квадратными скобками обозначены формы облаков: Ci - перистые, Cs - перисто-слоистые, Cc - перисто-кучевые, Ac - высококучевые, As - высокослоистые, Sc - слоисто-кучевые, Ns - слоисто-дождевые, Cu - кучевые, Cb - кучево-дождевые. Подробнее классификацию облаков см. в Атласе облаков (PDF).
T - Температура воздуха - температура, измеренная на высоте 2 м над землей.
Td - Температура точки росы - температура, при понижении до которой содержащийся в воздухе водяной пар достигнет насыщения.
f - Относительная влажность воздуха - влажноcть воздуха, измеренная на высоте 2 м над землей.
Te - Эффективная температура - температура, которую ощущает одетый по сезону человек в тени. Характеристика душности погоды. При расчете учитывается влияние влажности воздуха и скорости ветра на теплоощущения человека.
Tes - Эффективная температура на солнце - температура, которую ощущает человек, с поправкой на солнечный нагрев. Характеристика знойности погоды. Зависит от высоты солнца над горизонтом, облачности и скорости ветра. Ночью, в пасмурную погоду, а также при ветре 12 м/с и более поправка равна нулю.
P - Атмосферное давление - приведенное к уровню моря атмосферное давление.
Po - Атмосферное давление - измеренное на уровне метеостанции атмосферное давление.
Tmin - Минимальная температура - минимум температуры воздуха на высоте 2 м над землей.
Tmax - Максимальная температура - максимум температуры воздуха на высоте 2 м над землей.
R - Количество осадков - Количество выпавших осадков за период времени, мм. При наведении курсора мыши на число - период времени, за который выпало указанное количество осадков.
R24 - Количество осадков - Количество выпавших осадков за 24 часа, мм.
S - Снежный покров - Высота снежного покрова, см. При наведении курсора мыши на число - состояние снежного покрова и степень покрытия местности в баллах.